Regional Weather Roundup
Issued by NWS

Home | Current Version | Previous Version | Graphics & Text | Print | Product List | Glossary On
Versions: 1 2 3 4 5 6 7 8 9 10 11 12 13 14 15 16 17 18 19 20 21 22 23 24 25 26 27
000
ASUS45 KCYS 300810
RWRWY

WYOMING REGIONAL WEATHER ROUNDUP
NATIONAL WEATHER SERVICE CHEYENNE WY
200 AM MDT FRI SEP 30 2016

NOTE:  "FAIR" INDICATES FEW OR NO CLOUDS BELOW 12,000 FEET
WITH NO SIGNIFICANT WEATHER AND/OR OBSTRUCTIONS TO VISIBILITY.

WYZ001-300900-
YELLOWSTONE NATIONAL PARK

CITY           SKY/WX    TMP DP  RH WIND       PRES   REMARKS
LK YELLOWSTONE   N/A     39  38  96 CALM      30.37F
W YELLOWSTONE  NOT AVBL

$$
WYZ002>013-054>058-071-098>099-300900-
NORTHERN WYOMING

CITY           SKY/WX    TMP DP  RH WIND       PRES   REMARKS
JACKSON        CLOUDY    41  41 100 N3        30.33R
CODY           FAIR      61  43  51 N5        30.16S
GREYBULL       FAIR      58  54  86 NW3       30.11R
WORLAND        FAIR      54  49  83 S8        30.13S
SHERIDAN       FAIR      57  49  74 CALM      30.06F
BUFFALO        FAIR      59  43  55 NW5       30.12S
GILLETTE       FAIR      60  49  66 S13       30.12S
HULETT         FAIR      68  45  42 S7        30.15S
NEWCASTLE      FAIR      63  41  45 SE7       30.19S

$$
WYZ014>020-022>026-101>103-300900-
CENTRAL WYOMING

CITY           SKY/WX    TMP DP  RH WIND       PRES   REMARKS
BIG PINEY      FAIR      41  38  89 CALM      30.34S
PINEDALE       FAIR      37  37 100 CALM      30.35S
DUBOIS         FAIR      41  37  87 NW9       30.31S
LANDER         FAIR      53  46  77 CALM      30.22S
RIVERTON       FAIR      52  48  86 W6        30.23S
CASPER         MOCLDY    60  48  64 SW15      30.22F
DOUGLAS        FAIR      50  44  80 SE5       30.21F

$$
WYZ021-027>030-104>119-300900-
SOUTHERN WYOMING

CITY           SKY/WX    TMP DP  RH WIND       PRES   REMARKS
EVANSTON       CLOUDY    51  41  68 SW6       30.34F
FORT BRIDGER   FAIR      54  41  62 SW10      30.36F
ROCK SPRINGS   CLOUDY    51  45  79 S6        30.32S
DIXON          CLOUDY    57  47  70 S7        30.38S
RAWLINS        FAIR      54  47  77 SW10G16   30.33S
SARATOGA       CLOUDY    46  45  93 CALM      30.36S
LARAMIE        FAIR      50  44  80 SW6       30.34F
CHEYENNE       FAIR      52  43  71 CALM      30.26F
TORRINGTON     FAIR      54  41  61 E12       30.19S
PINE BLUFFS    FAIR      46  39  76 CALM      30.24F

$$




USA.gov is the U.S. government's official web portal to all federal, state and local government web resources and services.